DW1347 Weather Reports


time (UTC)temp
C
wind
direction
speed
KPH
gust
KPH
rain 1hr
cm
rain 24hr
cm
rain mn
cm
humidity
%
barometer
mb
20260507093723 -4 217 0.0 0.0 0.00 0.00 0.00 95 1025.0
20260507093222 -4 219 0.0 0.0 0.00 0.00 0.00 94 1024.9
20260507092719 -3 178 1.6 1.6 0.00 0.00 0.00 93 1024.9
20260507092215 -3 182 1.6 3.2 0.00 0.00 0.00 93 1025.2
20260507091711 -3 219 0.0 1.6 0.00 0.00 0.00 93 1025.0
20260507091208 -3 224 0.0 0.0 0.00 0.00 0.00 93 1025.1
20260507090703 -3 235 0.0 0.0 0.00 0.00 0.00 93 1025.0
20260507090200 -4 149 6.4 8.0 0.00 0.00 0.00 94 1024.9
20260507085657 -4 169 4.8 4.8 0.00 0.00 0.00 94 1024.7
20260507085154 -4 173 0.0 1.6 0.00 0.00 0.00 94 1024.7
20260507084651 -4 206 1.6 1.6 0.00 0.00 0.00 94 1024.9
20260507084147 -4 145 3.2 3.2 0.00 0.00 0.00 93 1024.9
20260507083644 -4 208 1.6 1.6 0.00 0.00 0.00 93 1025.0
20260507083141 -4 204 1.6 1.6 0.00 0.00 0.00 94 1025.0
20260507082637 -4 129 3.2 4.8 0.00 0.00 0.00 94 1024.9
20260507082134 -4 220 3.2 3.2 0.00 0.00 0.00 94 1025.2
20260507081631 -4 177 3.2 3.2 0.00 0.00 0.00 94 1025.4
20260507081127 -4 236 3.2 3.2 0.00 0.00 0.00 94 1025.1
20260507080623 -4 228 0.0 0.0 0.00 0.00 0.00 94 1025.5
20260507080120 -4 133 6.4 8.0 0.00 0.00 0.00 94 1025.1
20260507075620 -4 145 4.8 4.8 0.00 0.00 0.00 94 1025.4
20260507075116 -4 226 0.0 0.0 0.00 0.00 0.00 93 1025.5
20260507074613 -4 240 1.6 3.2 0.00 0.00 0.00 93 1025.0
20260507074112 -4 238 3.2 3.2 0.00 0.00 0.00 93 1025.4
20260507073607 -4 295 0.0 1.6 0.00 0.00 0.00 92 1025.2
20260507073104 -3 204 1.6 1.6 0.00 0.00 0.00 92 1025.5
20260507072602 -3 222 1.6 1.6 0.00 0.00 0.00 91 1025.5
20260507072059 -3 173 4.8 4.8 0.00 0.00 0.00 90 1025.2
20260507071556 -3 225 0.0 1.6 0.00 0.00 0.00 90 1025.5
20260507071052 -3 230 1.6 1.6 0.00 0.00 0.00 89 1025.4
20260507070549 -3 119 1.6 3.2 0.00 0.00 0.00 89 1025.6
20260507070046 -2 225 0.0 0.0 0.00 0.00 0.00 86 1025.4
20260507065543 -2 219 3.2 3.2 0.00 0.00 0.00 84 1025.4
20260507065040 -2 204 3.2 4.8 0.00 0.00 0.00 86 1025.2
20260507064538 -2 238 3.2 3.2 0.00 0.00 0.00 84 1025.2
20260507064036 -1 195 3.2 3.2 0.00 0.00 0.00 82 1025.1
20260507063533 0 147 6.4 8.0 0.00 0.00 0.00 74 1024.9
20260507063030 0 137 3.2 4.8 0.00 0.00 0.00 69 1025.0
20260507062527 1 168 3.2 4.8 0.00 0.00 0.00 60 1024.7
20260507062025 0 220 9.7 14.5 0.00 0.00 0.00 59 1024.6
20260507061522 0 242 1.6 1.6 0.00 0.00 0.00 64 1024.9
20260507061020 1 359 0.0 1.6 0.00 0.00 0.00 61 1024.6
20260507060518 1 237 8.0 11.3 0.00 0.00 0.00 57 1024.5
20260507060014 1 260 12.9 16.1 0.00 0.58 0.58 56 1024.6
20260507055509 1 255 11.3 12.9 0.00 0.58 0.58 52 1024.2
20260507055006 1 238 8.0 9.7 0.00 0.58 0.58 58 1024.6
20260507054501 1 305 11.3 16.1 0.00 0.58 0.58 59 1024.4
20260507053959 0 253 9.7 11.3 0.00 0.58 0.58 67 1024.5
20260507053457 1 269 8.0 11.3 0.00 0.58 0.58 56 1024.6
20260507052955 0 233 11.3 16.1 0.00 0.58 0.58 59 1024.9
20260507052452 1 241 8.0 9.7 0.00 0.58 0.58 65 1024.7
20260507051949 0 254 8.0 9.7 0.00 0.58 0.58 60 1024.7
20260507051447 0 250 6.4 9.7 0.00 0.58 0.58 61 1024.7
20260507050943 0 263 6.4 8.0 0.00 0.58 0.58 70 1024.7
20260507050440 0 318 8.0 9.7 0.00 0.58 0.58 66 1024.7
20260507045937 0 298 8.0 9.7 0.00 0.58 0.58 71 1024.6
20260507045433 0 228 8.0 11.3 0.00 0.58 0.58 69 1024.6
20260507044930 0 261 9.7 11.3 0.00 0.58 0.58 68 1024.6
20260507044427 0 236 4.8 4.8 0.00 0.58 0.58 70 1024.9
20260507043923 0 249 6.4 8.0 0.00 0.58 0.58 69 1024.5
20260507043419 0 247 6.4 9.7 0.00 0.58 0.58 77 1024.4
20260507042916 0 253 8.0 8.0 0.00 0.58 0.58 78 1024.1
20260507042413 0 247 4.8 8.0 0.00 0.58 0.58 77 1024.5
20260507041908 -2 239 8.0 11.3 0.00 0.58 0.58 91 1024.2
20260507041405 -2 126 0.0 3.2 0.00 0.58 0.58 91 1024.0
20260507040903 -1 230 1.6 3.2 0.00 0.58 0.58 91 1024.2
20260507040358 -2 182 3.2 3.2 0.00 0.58 0.58 93 1024.1
20260507035854 -2 217 6.4 8.0 0.00 0.58 0.58 95 1024.0
20260507035351 -2 175 3.2 3.2 0.00 0.58 0.58 94 1024.1
20260507034848 -1 160 3.2 3.2 0.00 0.58 0.58 92 1024.0
20260507034345 0 233 0.0 0.0 0.00 0.58 0.58 85 1024.1
20260507033843 0 235 3.2 3.2 0.00 0.58 0.58 82 1024.1
20260507033340 -1 13 8.0 12.9 0.00 0.58 0.58 91 1023.8
20260507032837 -2 219 0.0 1.6 0.00 0.58 0.58 99 1024.0
20260507032333 -1 235 0.0 0.0 0.00 0.58 0.58 98 1024.1
20260507031830 -1 199 1.6 1.6 0.00 0.58 0.58 98 1024.0
20260507031327 -1 217 0.0 0.0 0.00 0.58 0.58 97 1023.6
20260507030823 -1 193 0.0 1.6 0.00 0.58 0.58 98 1023.7
20260507030321 -1 235 1.6 1.6 0.00 0.58 0.58 98 1023.6
20260507025817 -1 175 4.8 4.8 0.00 0.58 0.58 99 1023.6
20260507025315 -1 221 3.2 3.2 0.00 0.58 0.58 99 1023.7
20260507024813 -1 220 0.0 1.6 0.00 0.58 0.58 99 1023.8
20260507024310 -1 222 0.0 0.0 0.00 0.58 0.58 99 1023.2
20260507023805 -1 253 0.0 0.0 0.00 0.58 0.58 99 1023.5
20260507023302 -1 196 0.0 0.0 0.00 0.58 0.58 99 1023.5
20260507022800 -1 212 0.0 0.0 0.00 0.58 0.58 99 1023.5
20260507022256 0 229 1.6 3.2 0.00 0.58 0.58 99 1023.1
20260507021752 0 137 4.8 8.0 0.00 0.58 0.58 99 1023.1
20260507021248 0 222 0.0 1.6 0.00 0.58 0.58 99 1023.2
20260507020746 0 179 4.8 4.8 0.00 0.58 0.58 99 1023.3
20260507020242 0 230 3.2 3.2 0.00 0.58 0.58 99 1023.2
20260507015740 0 226 0.0 0.0 0.00 0.58 0.58 99 1023.1
20260507015237 0 201 0.0 1.6 0.00 0.58 0.58 99 1022.8
20260507014734 0 232 0.0 0.0 0.00 0.58 0.58 99 1023.1
20260507014230 0 191 1.6 1.6 0.00 0.58 0.58 99 1023.5
20260507013727 0 227 3.2 3.2 0.00 0.58 0.58 99 1023.1
20260507013224 0 222 0.0 0.0 0.00 0.58 0.58 99 1023.2
20260507012721 0 234 0.0 1.6 0.00 0.58 0.58 99 1023.2
20260507012217 0 199 0.0 1.6 0.00 0.58 0.58 98 1023.0
20260507011715 0 230 0.0 0.0 0.00 0.58 0.58 98 1023.0
20260507011211 1 255 1.6 1.6 0.18 0.58 0.58 97 1023.2
20260507010710 1 254 1.6 1.6 0.18 0.58 0.58 97 1023.0
20260507010207 2 242 0.0 0.0 0.18 0.58 0.58 97 1023.1
20260507005705 2 238 0.0 0.0 0.00 0.56 0.56 97 1023.0
20260507005201 2 242 0.0 1.6 0.13 0.56 0.56 97 1023.0
20260507004657 1 234 0.0 0.0 0.13 0.56 0.56 97 1023.1
20260507004155 2 245 4.8 4.8 0.18 0.53 0.53 97 1023.0
20260507003651 1 221 0.0 1.6 0.18 0.53 0.53 97 1022.8
20260507003151 1 243 1.6 1.6 0.13 0.51 0.51 96 1022.8
20260507002648 1 238 0.0 1.6 0.13 0.51 0.51 98 1022.8
20260507002144 1 314 3.2 3.2 0.18 0.48 0.48 96 1022.6
20260507001641 1 245 4.8 4.8 0.18 0.48 0.48 96 1022.8
20260507001138 1 323 4.8 4.8 0.13 0.46 0.46 95 1023.2
20260507000634 2 317 4.8 8.0 0.30 0.46 0.46 93 1022.8
20260507000130 2 276 4.8 4.8 0.30 0.43 0.43 90 1022.7
20260506235628 2 243 0.0 0.0 0.30 0.41 0.41 91 1023.1
20260506235128 2 270 0.0 0.0 0.48 0.38 0.38 91 1022.7
20260506234625 2 231 0.0 0.0 0.30 0.36 0.36 90 1022.8
20260506234122 2 224 0.0 0.0 0.00 0.30 0.30 89 1022.6
20260506233619 1 231 1.6 3.2 0.00 0.30 0.30 89 1022.7
20260506233116 1 254 0.0 1.6 0.18 0.30 0.30 90 1023.0
20260506232612 2 221 1.6 1.6 0.30 0.30 0.30 85 1022.8
20260506232108 3 213 1.6 1.6 0.48 0.30 0.30 85 1022.6
20260506231605 2 230 0.0 0.0 0.30 0.25 0.25 89 1022.6
20260506231103 2 158 4.8 4.8 0.43 0.23 0.23 88 1022.8
20260506230559 2 227 0.0 0.0 0.48 0.20 0.20 89 1023.0
20260506230057 2 207 1.6 3.2 0.43 0.18 0.18 87 1022.7
20260506225553 1 216 0.0 0.0 0.43 0.13 0.13 87 1022.7
20260506225050 2 225 3.2 3.2 0.30 0.10 0.10 88 1022.8
20260506224547 1 223 0.0 0.0 0.30 0.08 0.08 89 1023.1
20260506224044 1 201 0.0 0.0 0.18 0.05 0.05 88 1022.6
20260506223539 0 235 1.6 1.6 0.13 0.03 0.03 92 1022.7
20260506223036 0 296 1.6 1.6 0.13 0.03 0.03 89 1023.0
20260506222533 1 141 6.4 8.0 0.00 0.00 0.00 86 1022.8
20260506222029 3 141 0.0 0.0 0.00 0.00 0.00 79 1023.0
20260506221527 2 123 0.0 1.6 0.00 0.00 0.00 85 1023.0
20260506221024 2 139 0.0 0.0 0.00 0.00 0.00 85 1023.1
20260506220520 2 145 0.0 0.0 0.00 0.00 0.00 83 1023.0
20260506220016 1 151 0.0 0.0 0.00 0.00 0.00 85 1023.0
20260506215513 1 172 0.0 0.0 0.00 0.00 0.00 84 1023.0
20260506215009 1 198 0.0 0.0 0.00 0.00 0.00 85 1023.2
20260506214506 1 193 0.0 0.0 0.00 0.00 0.00 85 1023.1
20260506214003 0 195 0.0 0.0 0.00 0.00 0.00 85 1023.1
20260506213501 0 210 0.0 0.0 0.00 0.00 0.00 85 1023.0
20260506212958 1 162 0.0 0.0 0.00 0.00 0.00 82 1023.2
20260506212454 1 263 0.0 0.0 0.00 0.00 0.00 84 1023.5
20260506211949 0 214 0.0 0.0 0.00 0.00 0.00 85 1023.1
20260506211445 0 212 0.0 0.0 0.00 0.00 0.00 86 1023.2
20260506210943 0 196 0.0 0.0 0.00 0.00 0.00 84 1023.5
20260506210439 0 259 0.0 0.0 0.00 0.00 0.00 89 1023.5
20260506205936 0 244 0.0 0.0 0.00 0.00 0.00 89 1023.6
20260506205432 0 208 0.0 0.0 0.00 0.00 0.00 86 1023.5
20260506204928 0 191 0.0 0.0 0.00 0.00 0.00 83 1023.7
20260506204427 0 260 0.0 0.0 0.00 0.00 0.00 83 1023.7
20260506203924 0 271 0.0 0.0 0.00 0.00 0.00 85 1023.5
20260506203421 0 283 0.0 0.0 0.00 0.00 0.00 86 1024.1
20260506202917 0 285 0.0 0.0 0.00 0.00 0.00 85 1023.8
20260506202414 0 288 0.0 0.0 0.00 0.00 0.00 87 1023.7
20260506201911 -1 295 0.0 0.0 0.00 0.00 0.00 92 1024.0
20260506201409 -1 297 0.0 0.0 0.00 0.00 0.00 93 1024.1
20260506200905 -1 297 0.0 0.0 0.00 0.00 0.00 94 1024.1
20260506200401 -1 298 0.0 0.0 0.00 0.00 0.00 93 1024.2
20260506195858 -1 298 0.0 0.0 0.00 0.00 0.00 94 1024.0
20260506195355 -2 298 0.0 0.0 0.00 0.00 0.00 93 1024.0
20260506194852 -2 299 0.0 0.0 0.00 0.00 0.00 93 1024.1
20260506194349 -1 299 0.0 0.0 0.00 0.00 0.00 93 1024.0
20260506193846 -1 269 0.0 0.0 0.00 0.00 0.00 93 1024.1
20260506193342 -1 269 0.0 0.0 0.00 0.00 0.00 91 1024.0
20260506192838 -1 269 0.0 0.0 0.00 0.00 0.00 92 1024.1
20260506192336 -1 270 0.0 0.0 0.00 0.00 0.00 91 1024.2
20260506191833 -1 269 0.0 0.0 0.00 0.00 0.00 90 1024.0
20260506191329 -1 269 0.0 0.0 0.00 0.00 0.00 91 1024.2
20260506190826 -1 269 0.0 0.0 0.00 0.00 0.00 91 1024.1
20260506190322 0 269 0.0 0.0 0.00 0.00 0.00 90 1024.4
20260506185820 -1 264 0.0 0.0 0.00 0.00 0.00 91 1024.1
20260506185316 -1 265 0.0 0.0 0.00 0.00 0.00 91 1024.4
20260506184813 -1 267 0.0 0.0 0.00 0.00 0.00 92 1024.1
20260506184311 -1 268 0.0 0.0 0.00 0.00 0.00 92 1024.2
20260506183808 -1 270 0.0 0.0 0.00 0.00 0.00 93 1024.5
20260506183303 -2 271 0.0 0.0 0.00 0.00 0.00 92 1024.6
20260506182800 -2 271 0.0 0.0 0.00 0.00 0.00 93 1024.5
20260506182257 -1 271 0.0 0.0 0.00 0.00 0.00 92 1024.4
20260506181755 -2 273 0.0 0.0 0.00 0.00 0.00 93 1024.2
20260506181253 -2 273 0.0 0.0 0.00 0.00 0.00 95 1024.5
20260506180750 -2 274 0.0 0.0 0.00 0.00 0.00 94 1024.5
20260506180246 -2 274 0.0 0.0 0.00 0.00 0.00 94 1024.4
20260506175742 -2 274 0.0 0.0 0.00 0.00 0.00 94 1024.6
20260506175239 -2 274 0.0 0.0 0.00 0.00 0.00 94 1024.4
20260506174737 -2 274 0.0 0.0 0.00 0.00 0.00 95 1024.5
20260506174233 -2 274 0.0 0.0 0.00 0.00 0.00 95 1024.6
20260506173732 -2 275 0.0 0.0 0.00 0.00 0.00 95 1024.7
20260506173228 -2 275 0.0 0.0 0.00 0.00 0.00 96 1024.2
20260506172724 -2 275 0.0 0.0 0.00 0.00 0.00 96 1024.4
20260506172221 -2 275 0.0 0.0 0.00 0.00 0.00 96 1024.1
20260506171719 -2 275 0.0 0.0 0.00 0.00 0.00 96 1024.4
20260506171216 -2 275 0.0 0.0 0.00 0.00 0.00 96 1024.2
20260506170713 -3 275 0.0 0.0 0.00 0.00 0.00 96 1024.2
20260506170210 -3 275 0.0 0.0 0.00 0.00 0.00 96 1024.1
20260506165709 -3 275 0.0 0.0 0.00 0.00 0.00 96 1024.1
20260506165205 -3 275 0.0 0.0 0.00 0.00 0.00 96 1024.0
20260506164702 -3 275 0.0 0.0 0.00 0.00 0.00 96 1024.0
20260506164159 -3 275 0.0 0.0 0.00 0.00 0.00 95 1023.6
20260506163655 -2 275 0.0 0.0 0.00 0.00 0.00 95 1023.6
20260506163151 -2 275 0.0 0.0 0.00 0.00 0.00 95 1023.5
20260506162647 -2 275 0.0 0.0 0.00 0.00 0.00 95 1023.5
20260506162145 -2 275 0.0 0.0 0.00 0.00 0.00 96 1023.5
20260506161642 -2 275 0.0 0.0 0.00 0.00 0.00 96 1023.3
20260506161138 -2 275 0.0 0.0 0.00 0.00 0.00 96 1023.3
20260506160636 -3 275 0.0 0.0 0.00 0.00 0.00 97 1023.5
20260506160133 -3 275 0.0 0.0 0.00 0.00 0.00 97 1023.3
20260506155632 -3 275 0.0 0.0 0.00 0.00 0.00 97 1023.6
20260506155128 -3 275 0.0 0.0 0.00 0.00 0.00 98 1023.1
20260506153230 -3 275 0.0 0.0 0.00 0.00 0.00 98 1023.1
20260506152727 -3 275 0.0 0.0 0.00 0.00 0.00 99 1023.2
20260506152225 -3 275 0.0 0.0 0.00 0.00 0.00 99 1023.2
20260506151724 -3 275 0.0 0.0 0.00 0.00 0.00 99 1023.1
20260506151219 -3 275 0.0 0.0 0.00 0.00 0.00 99 1023.0
20260506150716 -3 275 0.0 0.0 0.00 0.00 0.00 99 1022.8
20260506150213 -3 275 0.0 0.0 0.00 0.00 0.00 99 1023.1
20260506145710 -3 275 0.0 0.0 0.00 0.00 0.00 99 1023.0
20260506145207 -3 275 0.0 0.0 0.00 0.00 0.00 99 1022.8
20260506144704 -3 275 0.0 0.0 0.00 0.00 0.00 99 1023.0
20260506144201 -3 275 0.0 0.0 0.00 0.00 0.00 99 1023.0
20260506143659 -3 275 0.0 0.0 0.00 0.00 0.00 99 1022.8
20260506143156 -3 276 0.0 0.0 0.00 0.00 0.00 99 1022.5
20260506142655 -3 276 0.0 0.0 0.00 0.00 0.00 99 1022.8
20260506142152 -3 276 0.0 0.0 0.00 0.00 0.00 99 1022.5
20260506141650 -3 276 0.0 0.0 0.00 0.00 0.00 99 1022.6
20260506141148 -3 276 0.0 0.0 0.00 0.00 0.00 99 1022.3
20260506140645 -3 276 0.0 0.0 0.00 0.00 0.00 99 1022.8
20260506140142 -3 276 0.0 0.0 0.00 0.00 0.00 99 1022.3
20260506135639 -3 276 0.0 0.0 0.00 0.00 0.00 99 1022.6
20260506135135 -3 276 0.0 0.0 0.00 0.00 0.00 99 1022.2
20260506134632 -3 276 0.0 0.0 0.00 0.00 0.00 99 1022.6
20260506134128 -4 276 0.0 0.0 0.00 0.00 0.00 99 1022.2
20260506133625 -4 277 0.0 0.0 0.00 0.00 0.00 99 1022.1
20260506133122 -4 277 0.0 0.0 0.00 0.00 0.00 99 1022.3
20260506132620 -4 277 0.0 0.0 0.00 0.00 0.00 99 1022.2
20260506132116 -4 277 0.0 0.0 0.00 0.00 0.00 99 1021.8
20260506131614 -4 277 0.0 0.0 0.00 0.00 0.00 99 1022.1
20260506131110 -4 277 0.0 0.0 0.00 0.00 0.00 99 1022.3
20260506130607 -4 277 0.0 0.0 0.00 0.00 0.00 99 1022.2
20260506130104 -4 277 0.0 0.0 0.00 0.00 0.00 99 1021.7
20260506125603 -4 277 0.0 0.0 0.00 0.00 0.00 99 1022.0
20260506125100 -4 277 0.0 0.0 0.00 0.00 0.00 99 1021.7
20260506124557 -4 277 0.0 0.0 0.00 0.00 0.00 99 1021.4
20260506124055 -4 277 0.0 0.0 0.00 0.00 0.00 99 1021.6
20260506123552 -4 277 0.0 0.0 0.00 0.00 0.00 99 1021.4
20260506123051 -4 277 0.0 0.0 0.00 0.00 0.00 99 1021.3
20260506122547 -4 277 0.0 0.0 0.00 0.00 0.00 99 1021.1
20260506122046 -4 277 0.0 0.0 0.00 0.00 0.00 99 1021.2
20260506121543 -4 277 0.0 0.0 0.00 0.00 0.00 99 1021.3
20260506121038 -4 277 0.0 0.0 0.00 0.00 0.00 99 1020.9
20260506120537 -4 277 0.0 0.0 0.00 0.00 0.00 99 1021.3
20260506120034 -4 277 0.0 0.0 0.00 0.00 0.00 99 1020.9
20260506115532 -4 277 0.0 0.0 0.00 0.00 0.00 99 1020.9
20260506115030 -4 277 0.0 0.0 0.00 0.00 0.00 99 1021.3
20260506114527 -4 277 0.0 0.0 0.00 0.00 0.00 99 1020.9
20260506114026 -4 277 0.0 0.0 0.00 0.00 0.00 99 1021.2
20260506113523 -4 277 0.0 0.0 0.00 0.00 0.00 99 1020.9
20260506113020 -4 277 0.0 0.0 0.00 0.00 0.00 99 1021.2
20260506112516 -4 277 0.0 0.0 0.00 0.00 0.00 99 1020.9
20260506112014 -4 277 0.0 0.0 0.00 0.00 0.00 99 1020.9
20260506111512 -4 277 0.0 0.0 0.00 0.00 0.00 99 1020.9
20260506111009 -4 277 0.0 0.0 0.00 0.00 0.00 99 1020.9
20260506110507 -4 276 0.0 0.0 0.00 0.00 0.00 99 1020.6
20260506110004 -4 276 0.0 0.0 0.00 0.00 0.00 99 1020.6
20260506105459 -4 276 0.0 0.0 0.00 0.00 0.00 99 1020.7
20260506104957 -4 276 0.0 0.0 0.00 0.00 0.00 99 1020.9
20260506104455 -4 276 0.0 0.0 0.00 0.00 0.00 99 1020.8
20260506103953 -4 276 0.0 0.0 0.00 0.00 0.00 99 1020.9
20260506103449 -4 276 0.0 0.0 0.00 0.00 0.00 99 1020.9
20260506102946 -4 276 0.0 0.0 0.00 0.00 0.00 99 1020.9
20260506102444 -4 276 0.0 0.0 0.00 0.00 0.00 99 1020.9
20260506101942 -4 276 0.0 0.0 0.00 0.00 0.00 99 1021.2
20260506101438 -4 276 0.0 0.0 0.00 0.00 0.00 99 1020.9
20260506100935 -4 276 0.0 0.0 0.00 0.00 0.00 99 1020.8
20260506100433 -4 276 0.0 0.0 0.00 0.00 0.00 99 1021.3
20260506095931 -4 276 0.0 0.0 0.00 0.00 0.00 99 1020.8
20260506095429 -4 276 0.0 0.0 0.00 0.00 0.00 99 1021.1
20260506094925 -4 276 0.0 0.0 0.00 0.00 0.00 99 1020.9
20260506094424 -4 276 0.0 0.0 0.00 0.00 0.00 99 1021.2